TimeMDT,TemperatureF,Dew PointF,Humidity,Sea Level PressureIn,VisibilityMPH,Wind Direction,Wind SpeedMPH,Gust SpeedMPH,PrecipitationIn,Events,Conditions,WindDirDegrees,DateUTC
12:53 AM,34.0,24.1,67,30.14,10.0,SE,3.5,-,N/A,,Clear,130,2013-10-27 06:53:00
1:53 AM,35.1,25.0,67,30.13,10.0,SSW,4.6,-,N/A,,Clear,210,2013-10-27 07:53:00
2:53 AM,32.0,24.1,73,30.11,10.0,Calm,Calm,-,N/A,,Clear,0,2013-10-27 08:53:00
3:53 AM,28.9,23.0,78,30.07,10.0,Calm,Calm,-,N/A,,Clear,0,2013-10-27 09:53:00
4:53 AM,32.0,24.1,73,30.04,10.0,NNE,4.6,-,N/A,,Clear,20,2013-10-27 10:53:00
5:53 AM,27.0,21.9,81,30.04,10.0,SSE,4.6,-,N/A,,Clear,160,2013-10-27 11:53:00
6:53 AM,33.1,25.0,72,30.04,10.0,East,5.8,-,N/A,,Clear,90,2013-10-27 12:53:00
7:53 AM,30.0,23.0,75,30.04,10.0,Calm,Calm,-,N/A,,Clear,0,2013-10-27 13:53:00
8:53 AM,36.0,26.1,67,30.01,10.0,Variable,3.5,-,N/A,,Clear,0,2013-10-27 14:53:00
9:53 AM,42.1,26.1,53,29.98,10.0,Calm,Calm,-,N/A,,Clear,0,2013-10-27 15:53:00
10:53 AM,53.1,28.0,38,29.92,10.0,Calm,Calm,-,N/A,,Clear,0,2013-10-27 16:53:00
11:53 AM,60.1,27.0,28,29.88,10.0,Calm,Calm,-,N/A,,Clear,0,2013-10-27 17:53:00
12:53 PM,63.0,28.0,27,29.83,10.0,Calm,Calm,-,N/A,,Clear,0,2013-10-27 18:53:00
1:53 PM,64.9,28.0,25,29.77,10.0,Variable,3.5,-,N/A,,Clear,0,2013-10-27 19:53:00
2:53 PM,66.9,25.0,21,29.72,10.0,NW,4.6,-,N/A,,Clear,310,2013-10-27 20:53:00
3:53 PM,66.9,18.0,15,29.70,10.0,SSW,13.8,18.4,N/A,,Clear,210,2013-10-27 21:53:00
4:53 PM,64.0,21.0,19,29.68,10.0,South,11.5,-,N/A,,Clear,170,2013-10-27 22:53:00
5:53 PM,61.0,19.0,20,29.68,10.0,SSE,10.4,-,N/A,,Clear,160,2013-10-27 23:53:00
6:53 PM,55.9,19.9,25,29.65,10.0,SW,5.8,-,N/A,,Partly Cloudy,220,2013-10-28 00:53:00
7:53 PM,59.0,21.9,24,29.64,10.0,South,10.4,-,N/A,,Mostly Cloudy,170,2013-10-28 01:53:00
8:53 PM,60.1,21.0,22,29.61,10.0,East,8.1,-,N/A,,Overcast,90,2013-10-28 02:53:00
9:53 PM,57.0,23.0,27,29.57,10.0,North,10.4,-,N/A,,Overcast,360,2013-10-28 03:53:00
10:53 PM,55.9,21.9,27,29.55,10.0,East,9.2,-,N/A,,Overcast,90,2013-10-28 04:53:00
11:53 PM,53.1,23.0,31,29.53,10.0,NNE,6.9,-,N/A,,Overcast,30,2013-10-28 05:53:00